This is the latest recevied weather packets stored in our database for station/object LU5DTF-1. If no packets are shown the sender has not sent any weather packets the latest 1 day(s).
| Time | Temp. | Humidity | Pressure | Rain* | Wind** | Luminosity | Snow |
|---|---|---|---|---|---|---|---|
| 1777961702 | 15° C | 72% | 1010.3 hPa | 0 mm | 2.68 m/s, 279° | - | - |
| 1777961403 | 15° C | 71% | 1010.2 hPa | 0 mm | 1.79 m/s, 273° | - | - |
| 1777961102 | 15° C | 71% | 1010.2 hPa | 0 mm | 1.34 m/s, 275° | - | - |
| 1777960803 | 15.56° C | 70% | 1010.2 hPa | 0 mm | 0.89 m/s, 295° | - | - |
| 1777960503 | 15.56° C | 70% | 1010.2 hPa | 0 mm | 1.34 m/s, 300° | - | - |
| 1777960202 | 15.56° C | 70% | 1010.2 hPa | 0 mm | 1.79 m/s, 295° | - | - |
| 1777959902 | 15.56° C | 70% | 1010.3 hPa | 0 mm | 2.24 m/s, 291° | - | - |
| 1777959602 | 15.56° C | 70% | 1010.2 hPa | 0 mm | 2.24 m/s, 290° | - | - |
| 1777959302 | 15.56° C | 69% | 1010.4 hPa | 0 mm | 2.68 m/s, 287° | - | - |
| 1777959002 | 15.56° C | 69% | 1010.2 hPa | 0 mm | 1.79 m/s, 287° | - | - |
| 1777958702 | 15.56° C | 69% | 1010.2 hPa | 0 mm | 1.34 m/s, 292° | - | - |
| 1777958403 | 15.56° C | 68% | 1010.1 hPa | 0 mm | 1.79 m/s, 304° | - | - |
| 1777958103 | 15.56° C | 68% | 1010.1 hPa | 0 mm | 2.24 m/s, 309° | - | - |
| 1777957803 | 15.56° C | 68% | 1010.1 hPa | 0 mm | 2.68 m/s, 310° | - | - |
| 1777957502 | 15.56° C | 68% | 1009.9 hPa | 0 mm | 3.13 m/s, 308° | - | - |
| 1777957203 | 15.56° C | 67% | 1010 hPa | 0 mm | 2.24 m/s, 308° | - | - |
| 1777956902 | 15.56° C | 67% | 1009.9 hPa | 0 mm | 1.79 m/s, 318° | - | - |
| 1777956603 | 15.56° C | 67% | 1009.6 hPa | 0 mm | 1.34 m/s, 327° | - | - |
| 1777956302 | 15° C | 66% | 1009.7 hPa | 0 mm | 0.89 m/s, 326° | - | - |
| 1777956002 | 15° C | 65% | 1010.1 hPa | 0 mm | 0.89 m/s, 323° | - | - |
| 1777955703 | 15° C | 64% | 1010.2 hPa | 0 mm | 0.89 m/s, 322° | - | - |
| 1777955403 | 15° C | 64% | 1010.3 hPa | 0 mm | 0.89 m/s, 317° | - | - |
| 1777955102 | 15° C | 64% | 1010.5 hPa | 0 mm | 0.89 m/s, 316° | - | - |
| 1777954802 | 15° C | 64% | 1010.4 hPa | 0 mm | 1.34 m/s, 336° | - | - |
| 1777954502 | 15° C | 65% | 1010.2 hPa | 0 mm | 0.89 m/s, 343° | - | - |
* Rain latest hour (hover to see other rain measurements)
** Current wind speed in m/s (hover to see current wind gust speed)